www.pogodaiklimat.ru

Погода и климат >> Архив погоды >> Индия >> Тамилнад >> Памбан


ПОГОДА на Памбане

  • Прогноз погоды на Памбане
  • Монитор погоды на Памбане

АРХИВ ПОГОДЫ на Памбане

Время (UTC), дата Ветер
(напр.,м/с)
 
Видим.   Явления Облачность Т
(С)
Тd
(С)
f
(%)
Тe
(С)
Тes
(С)
Комфортность P
(гПа)
Po
(гПа)
Тmin
(С)
Tmax
(С)
R
(мм)
R24
(мм)
S
(см)
21 12.07 Ю 2 4000 м 6/3 600 м
[Cb cap Ac trans]
+29.0 +28.5 97 +49 +49 опасность
перегрева
1008.6 1007.3
00 13.07 Ю 2 4000 м 8/4 600 м
[Sc As op]
+29.0 +27.6 92 +47 +47 опасность
перегрева
1008.6 1007.3
03 13.07 штиль 0 10 км 8/4 600 м
[Cb calv As op Ci fib]
+30.6 +29.3 93 +54 +58 опасность
перегрева
1010.4 1009.2 +28.4 +33.4
06 13.07 штиль 0 10 км 6/4 600 м
[Sc Ac trans]
+32.8 +31.2 91 +64 +77 опасность
перегрева
1010.7 1009.5
09 13.07 Ю 2 10 км 5/1 600 м
[Sc As op]
+31.0 +29.9 94 +57 +65 опасность
перегрева
1008.4 1007.2
12 13.07 Ю 3 10 км 6/6 600 м
[Cb cap]
+30.2 +29.1 94 +53 +53 опасность
перегрева
1008.1 1006.9 +33.0
15 13.07 З 4 4000 м 8/5 600 м
[Sc diur, vesp Ac trans]
+29.6 +28.5 94 +50 +50 опасность
перегрева
1010.1 1008.8
18 13.07 Ю 3 4000 м 8/5 600 м
[Cb calv Ac As]
+29.2 +28.9 98 +51 +51 опасность
перегрева
1010.9 1009.6
21 13.07 Ю 3 4000 м 6/4 600 м
[Sc Ac trans]
+29.0 +28.5 97 +49 +49 опасность
перегрева
1008.9 1007.6
00 14.07 Ю 3 4000 м 8/5 600 м
[Cb calv As op]
+29.0 +27.9 94 +48 +48 опасность
перегрева
1009.0 1007.7
03 14.07 Ю 2 10 км 5/1 600 м
[Sc Ac trans Ci fib]
+30.2 +29.4 95 +54 +59 опасность
перегрева
1010.2 1009.0 +28.0 +33.0
06 14.07 Ю 2 10 км 6/3 600 м
[Sc diur, vesp As trans Ci fib]
+33.0 +30.6 87 +62 +73 опасность
перегрева
1010.0 1008.8
09 14.07 Ю 2 10 км 6/3 600 м
[Sc Ac trans Ci fib]
+32.6 +30.7 90 +62 +71 опасность
перегрева
1007.8 1006.6
12 14.07 Ю 4 10 км 6/1 600 м
[Sc As op Ci sp]
+31.2 +29.9 93 +57 +58 опасность
перегрева
1007.3 1006.1 +33.2
15 14.07 З 5 4000 м 9/5 600 м
[Cb calv As op]
+29.4 +28.3 94 +50 +50 опасность
перегрева
1009.5 1008.2
18 14.07 Ю 3 4000 м 8/4 600 м
[Cb calv As op]
+29.2 +28.7 97 +50 +50 опасность
перегрева
1009.1 1007.8
21 14.07 Ю 3 4000 м 5/4 600 м
[Sc diur, vesp As op]
+29.2 +28.1 94 +49 +49 опасность
перегрева
1007.6 1006.3
00 15.07 Ю 2 4000 м 5/3 600 м
[Sc diur, vesp As op]
+29.2 +27.8 92 +48 +48 опасность
перегрева
1007.2 1005.9
03 15.07 З 2 10 км 6/3 600 м
[Sc As op Ci fib]
+30.0 +28.8 93 +52 +56 опасность
перегрева
1008.3 1007.1 +27.2 +33.2
06 15.07 Ю 2 10 км 5/3 600 м
[Sc Ac trans]
+33.2 +29.2 80 +58 +69 опасность
перегрева
1008.8 1007.6
09 15.07 Ю 3 10 км 5/1 600 м
[Cu Sc Ci fib]
+33.6 +30.1 82 +61 +72 опасность
перегрева
1006.4 1005.2
12 15.07 ЮЗ 3 10 км 5/1 600 м
[Cu Sc Ci fib]
+31.2 +30.1 94 +58 +59 опасность
перегрева
1005.4 1004.2 +34.0
15 15.07 Ю 2 4000 м 5/3 600 м
[Sc Ci fib]
+29.2 +28.7 97 +50 +50 опасность
перегрева
1007.1 1005.8
18 15.07 Ю 4 4000 м 5/3 600 м
[Sc Ci fib]
+29.0 +28.5 97 +49 +49 опасность
перегрева
1007.9 1006.6
21 15.07 Ю 2 4000 м 4/1 600 м
[Sc Ci fib]
+28.6 +28.1 97 +47 +47 опасность
перегрева
1006.5 1005.2
00 16.07 Ю 2 4000 м 6/1 600 м
[Sc Ci fib]
+28.4 +27.3 94 +45 +45 опасность
перегрева
1006.6 1005.3
03 16.07 Ю 1 10 км 5/1 600 м
[Sc Ci fib]
+31.6 +28.1 82 +52 +59 опасность
перегрева
1008.1 1006.9 +28.0 +34.0
06 16.07 ЮЗ 1 10 км 4/1 600 м
[Cu Sc Ci fib]
+33.6 +28.3 74 +55 +75 опасность
перегрева
1008.3 1007.1
09 16.07 Ю 2 10 км 5/1 600 м
[Cu Sc Ci fib]
+33.4 +29.4 80 +59 +71 опасность
перегрева
1005.4 1004.2
12 16.07 Ю 3 10 км 5/1 600 м
[Cu Sc Ci fib]
+31.8 +29.4 87 +56 +57 опасность
перегрева
1004.8 1003.6 +34.6
15 16.07 штиль 0 4000 м 8/4 600 м
[Sc Ac As]
+29.8 +29.3 97 +53 +53 опасность
перегрева
1006.8 1005.6
18 16.07 Ю 1 4000 м 5/1 600 м
[Sc Ci fib]
+29.4 +28.9 97 +51 +51 опасность
перегрева
1006.9 1005.6
21 16.07 штиль 0 4000 м 4/0
[Ci fib]
+29.2 +28.7 97 +50 +50 опасность
перегрева
1005.0 1003.7
00 17.07 штиль 0 10 км 8/3 600 м
[Sc Ci fib]
+29.0 +28.7 98 +50 +50 опасность
перегрева
1005.4 1004.1
03 17.07 штиль 0 10 км 4/1 600 м
[Sc diur, vesp Ci fib]
+31.2 +28.2 84 +52 +60 опасность
перегрева
1006.7 1005.5 +28.6 +34.6
06 17.07 штиль 0 10 км 5/1 600 м
[Cu Sc Ci fib]
+33.6 +30.1 82 +61 +84 опасность
перегрева
1006.4 1005.2
09 17.07 штиль 0 10 км 5/1 600 м
[Cu Sc Ac trans Ci fib]
+34.2 +30.2 80 +62 +76 опасность
перегрева
1004.2 1003.0
12 17.07 Ю 3 10 км 6/1 600 м
[Cu Sc Ac trans Ci fib]
+31.4 +30.1 93 +58 +59 опасность
перегрева
1003.2 1002.0 +34.7
15 17.07 Ю 3 4000 м 6/1 600 м
[Sc Ac trans Ci fib]
+30.4 +30.1 98 +56 +56 опасность
перегрева
1004.6 1003.4
18 17.07 Ю 4 4000 м 6/1 600 м
[Sc Ac trans Ci fib]
+30.0 +27.5 86 +48 +48 опасность
перегрева
1005.2 1003.9
21 17.07 Ю 2 4000 м 8/1 600 м
[Sc Ac trans Ci fib]
+29.4 +28.0 92 +49 +49 опасность
перегрева
1003.9 1002.6
00 18.07 штиль 0 4000 м 9/1 600 м
[Sc Ac trans Ci fib]
+29.2 +28.1 94 +49 +49 опасность
перегрева
1003.5 1002.2
03 18.07 нст 1 10 км 8/0
[Ci fib]
+30.6 +28.4 88 +52 +59 опасность
перегрева
1004.1 1002.9 +29.2 +34.7
06 18.07 нст 1 10 км 8/1 600 м
[Sc Ac trans Ci fib]
+34.4 +29.9 78 +61 +75 опасность
перегрева
1004.3 1003.1
09 18.07 З 2 10 км 5/3 600 м
[Sc Ac trans]
+34.2 +29.9 78 +61 +69 опасность
перегрева
1002.6 1001.4
12 18.07 Ю 3 10 км 8/4 600 м
[Cb cap As op Ci fib]
+31.4 +30.1 93 +58 +59 опасность
перегрева
1003.1 1001.9 +34.6
15 18.07 Ю 2 4000 м 5/3 600 м
[Cb cap As op]
+30.8 +28.9 90 +54 +54 опасность
перегрева
1004.0 1002.8
18 18.07 З 3 4000 м 5/1 600 м
[Sc Ac und]
+29.4 +27.8 91 +48 +48 опасность
перегрева
1005.5 1004.2
21 18.07 З 3 4000 м 5/1 600 м
[Sc Ac As]
+29.0 +27.3 91 +47 +47 опасность
перегрева
1002.8 1001.5
00 19.07 Ю 3 4000 м 4/1 600 м
[Sc Ac As]
+28.8 +26.9 89 +45 +45 опасность
перегрева
1002.9 1001.6
03 19.07 штиль 0 10 км 9/5 600 м
[Sc diur, vesp Ac lent Ci fib]
+30.4 +27.7 86 +50 +53 опасность
перегрева
1004.1 1002.9 +27.4 +34.6
06 19.07 штиль 0 10 км 6/3 600 м
[Sc diur, vesp Ac trans Ci fib]
+33.0 +27.8 74 +53 +68 опасность
перегрева
1004.1 1002.9
09 19.07 штиль 0 10 км 8/4 600 м
[Sc diur, vesp As op Ci fib]
+36.0 +27.6 62 +55 +63 опасность
перегрева
1002.0 1000.8
12 19.07 Ю 2 10 км 6/6 600 м
[Sc]
+32.2 +29.3 85 +57 +57 опасность
перегрева
1001.4 1000.2 +36.2
15 19.07 З 2 4000 м 4/3 600 м
[Sc As op]
+30.6 +28.7 90 +53 +53 опасность
перегрева
1003.8 1002.6

 

Местоположение метеостанции Памбан (Тамилнад, Индия): широта 9.28 долгота 79.22 высота над уровнем моря 11 м.

В архиве по умолчанию представлена погода на Памбане за последнюю неделю. Архивные данные за месяц целиком и за предыдущие месяцы, начиная с января 2011 года, Вы можете получить, выбрав интересующий диапазон дат из раскрывающегося списка и нажав кнопку "Ввод!".


*Определитесь, кто Вы:
робот инопланетянин человек

Внимание! Время в таблицах - всемирное. Для получения местного времени необходимо прибавить поправку, которая равна 5.5 ч.

Смотрите также архив погоды в соседних городах и на ближайших метеорологических станциях:

Погода в Тонди (Тамилнад, Индия) (54 км)
Погода в Маннаре (Шри Ланка) (84 км)
Погода в Джафне (Шри Ланка) (97 км)
Погода в Адирампаттинаме (Тамилнад, Индия) (118 км)
Погода в Тутикорине (Тамилнад, Индия) (129 км)
Погода в Ковилангуламе (Тамилнад, Индия) (129 км)
Погода в Кудумиянмалае (Тамилнад, Индия) (138 км)
Погода в Мадурай аэропорту (Тамилнад, Индия) (139 км)
Погода в Мадурае (Тамилнад, Индия) (140 км)
Погода в Вавунии (Шри Ланка) (152 км)

Пояснения к столбцам:

Ветер - указаны скорость ветра в м/с - средняя за 10 мин, порывы в срок и между сроками (в фигурных скобках) и направление, откуда дует ветер: С - северный, СВ - северо-восточный, В - восточный, ЮВ - юго-восточный, Ю - южный, ЮЗ - юго-западный, З - западный, СЗ - северо-западный.
Видимость - горизонтальная дальность видимости в метрах или километрах. При видимости от 1 до 10 км при отсутствии осадков обычно наблюдается дымка, при ухудшении видимости до 1 км и менее - туман. В сухую погоду видимость может ухудшаться дымом, пылью или мглою.
Явления - указаны атмосферные явления, наблюдавшиеся в срок или в последний час перед сроком; фигурными скобками обозначены явления, наблюдавшиеся между сроками (за 1-3 часа до срока); квадратными скобками обозначены град или гололедные отложения с указанием их диаметра в мм.
Облачность - указаны через наклонную черту общая и нижняя облачность в баллах и высота нижней границы облаков в метрах; квадратными скобками обозначены формы облаков: Ci - перистые, Cs - перисто-слоистые, Cc - перисто-кучевые, Ac - высококучевые, As - высокослоистые, Sc - слоисто-кучевые, Ns - слоисто-дождевые, Cu - кучевые, Cb - кучево-дождевые. Подробнее классификацию облаков см. в Атласе облаков (PDF).
T - Температура воздуха - температура, измеренная на высоте 2 м над землей.
Td - Температура точки росы - температура, при понижении до которой содержащийся в воздухе водяной пар достигнет насыщения.
f - Относительная влажность воздуха - влажноcть воздуха, измеренная на высоте 2 м над землей.
Te - Эффективная температура - температура, которую ощущает одетый по сезону человек в тени. Характеристика душности погоды. При расчете учитывается влияние влажности воздуха и скорости ветра на теплоощущения человека.
Tes - Эффективная температура на солнце - температура, которую ощущает человек, с поправкой на солнечный нагрев. Характеристика знойности погоды. Зависит от высоты солнца над горизонтом, облачности и скорости ветра. Ночью, в пасмурную погоду, а также при ветре 12 м/с и более поправка равна нулю.
P - Атмосферное давление - приведенное к уровню моря атмосферное давление.
Po - Атмосферное давление - измеренное на уровне метеостанции атмосферное давление.
Tmin - Минимальная температура - минимум температуры воздуха на высоте 2 м над землей.
Tmax - Максимальная температура - максимум температуры воздуха на высоте 2 м над землей.
R - Количество осадков - Количество выпавших осадков за период времени, мм. При наведении курсора мыши на число - период времени, за который выпало указанное количество осадков.
R24 - Количество осадков - Количество выпавших осадков за 24 часа, мм.
S - Снежный покров - Высота снежного покрова, см. При наведении курсора мыши на число - состояние снежного покрова и степень покрытия местности в баллах.